Brownsville South Padre Island International Airport
KBRO : now visible

Airfield :











YOU CAN JOIN US ON...

 
LOGIN :

Register | Disclaimer

   EN    FR    IT 

 









Legend :    VFR   Marginal VFR   IFR   Intensive IFR   Very Intensive IFR
Visi :
Ceiling :
>= 8 km
>= 3000ft
5 to 8 km
1000 to 3000 ft
1500m to 5 km
500 to 1000 ft
800 to 1500m
200 to 500 ft
< 800m
< 200 ft
Symbols :   Thunderstorms  Fog  Heavy snow  Heavy precipitations  Wind > 20 kt







- Airport Elevation : 22 ft
- IATA code : BRO


KBRO - Brownsville South Padre Island International

CURRENT METAR :
  • 180953Z AUTO 16006KT 10SM CLR 27/26 A2997 RMK AO2 SLP148 T02670256

EXPIRED METARs :
  • 180853Z AUTO 16006KT 10SM CLR 27/26 A2998 RMK AO2 SLP149 T02670256 58004
  • 180753Z AUTO 16006KT 10SM CLR 27/26 A2998 RMK AO2 SLP152 T02670256

TAF KBRO
Valid from the 18 at 06:00 until the 19 at 06:00 UTC


180525Z 1806/1906 14008KT P6SM FEW020
FM181400 15015G22KT P6SM FEW040
FM181700 15020G28KT P6SM FEW050
FM190200 15010KT P6SM FEW020
KZHU FIR / North America



MET'MAP, your aeronautical weather chart ! - Copyright ORBIFLY December 2007 - Disclaimer

ORBIFLY MET'MAP TEAM :

Programming & Development : Alexandra Zaïnal
Concept & Development : Baudouin d'Aumeries
Co-Development & Prog : Marc-Olivier Méhu
Technical & hardware support : Manuel Goepfert

Contact : metmap@orbifly.com




SOURCES & CREDITS :

   NOAA       Earth
Advisory